COSMOS 970 DEB, 65006

Orbit data source: Space-Track

COSMOS 970 DEB, 65006 is space debris in LEO originally from a launch on Wed, 21 Dec 1977 UTC launched from the Tyuratam Missile And Space Complex (TTMTR). Debris objects in space refer to the collection of defunct objects orbiting the Earth. Examples of debris include non-operational satellites, rocket bodies, and fragments generated from explosions, collisions, or faulty payload assembly.

Loading next visibility...
Identifier
65006, 1977-121DT
Orbit
LEO
Country
Flag of CISCIS
Related business
Manufacturer
Unknown
Mission
Spacecraft
Bus & Motor
Unknown
Mass
Unknown
Launch date (UTC)
1977-12-21 (48 years ago)
Launch vehicle
Unknown
Launch site
Tyuratam Missile And Space Complex (TTMTR)
Object type
Payload
Rocket body
Debris
Shape & HBR
Unknown shape, 0.1 m
Radar Cross Section
Small (<0.1 m²)

Expand to show TLE details & history
Last TLE update: 19 hours ago

TLE from 19 hours ago
0 COSMOS 970 DEB
1 65006U 77121DT  26171.05207651  .00000142  00000-0  22550-3 0  9992
2 65006  65.4953  50.4202 0135888 268.7118  89.8371 13.73527942629994
Epoch: 2026-06-20T01:14Z
TLE epoch observation values (Epoch: 2026-06-20T01:14:59.410Z)
Latitude
-0.00001°
Longitude
123.40041°
Altitude
989.966 km
Speed
7.357 km/s
True Right ascension
03h 21m 40s
True Declination
0° 00' 00"
Sunlit
Object was in daylight at epoch
Visualization orbit readout
Latitude
Unknown
Longitude
Unknown
Altitude
Unknown
Speed
Unknown
Apparent Right ascension
Unknown
Apparent Declination
Unknown
Sunlit
N/A
Visualization observer readout
Local Sidereal Time
07:12:49
Azimuth
Unknown
Elevation
Unknown
Doppler factor
Unknown
Orbital elements
Apogee altitude
1,085.553 km
Perigee altitude
885.427 km
Semi-major axis
7,363.627 km
Eccentricity
0.01359
Inclination
65.4953°
RAAN
50.4202°
Arg. of periapsis
268.7118°
True anomaly
91.39414°
Mean anomaly
89.8371°
Eccentric anomaly
90.61564°
Mean motion
3.43483 °/min
Orbital period
104.81 mins
BSTAR
0.0002255
Loading maneuver chart data...
Computing Atmospheric mass density...
Loading historical data...
Loading historical data...
Loading historical data...
Loading historical data...
Loading historical data...
Loading historical data...
Loading historical data...

Documentation

Showing up to 5 results
|